Regional Weather Roundup
Issued by NWS

Home | Current Version | Previous Version | Graphics & Text | Print | Product List | Glossary Off
Versions: 1 2 3 4 5 6 7 8 9 10 11 12 13 14 15 16 17 18 19 20 21 22 23 24 25 26 27 28 29 30 31 32 33 34 35 36 37 38 39 40 41 42 43 44 45 46 47 48 49 50

653
ASUS43 KTOP 300908
RWRKS

WEATHER ROUNDUP FOR KANSAS
NATIONAL WEATHER SERVICE GOODLAND KS
400 AM CDT MON MAY 30 2016

NOTE:  "FAIR" INDICATES FEW OR NO CLOUDS BELOW 12,000 FEET WITH NO
SIGNIFICANT WEATHER AND/OR OBSTRUCTIONS TO VISIBILITY.

KSZ001>006-013>018-027>032-041>047-301000-
NORTHWEST KANSAS

CITY           SKY/WX    TMP DP  RH WIND       PRES   REMARKS
GOODLAND       PTCLDY    57  50  77 S13       30.05F
HAYS           CLOUDY    59  50  72 SW9       30.03S
HILL CITY      CLEAR     57  52  83 S5        30.01F
$$

KSZ061>065-074>080-084>089-301000-
SOUTHWEST KANSAS

CITY           SKY/WX    TMP DP  RH WIND       PRES   REMARKS
DODGE CITY     CLOUDY    58  51  78 SW9       30.06F
ELKHART          N/A     52  48  86 W1          N/A
GARDEN CITY    PTCLDY    54  49  83 NW3       30.06R
GREAT BEND     CLOUDY    59  50  72 W9        30.03F
LIBERAL        CLEAR     52  45  76 E6        30.09S
PRATT          CLEAR     57  51  80 W6        30.05R
$$

KSZ066>073-081>083-090>101-301000-
SOUTHEAST KANSAS

CITY           SKY/WX    TMP DP  RH WIND       PRES   REMARKS
CHANUTE        CLEAR     65  63  93 SE3       30.03S
COFFEYVILLE    CLOUDY    64  63  96 W3        30.03S
HUTCHINSON     CLEAR     63  58  83 CALM      30.02F
MEDICINE LODGE   N/A     62  55  77 SW6       30.04R
NEWTON         CLEAR     61  55  82 E5        30.05S
PARSONS        CLEAR     62  61  96 CALM      30.04R
WICHITA INTL   MOCLDY    66  61  84 CALM      30.02R
WICHITA JABRA  CLEAR     61  60  97 CALM      30.02R
WICHITA MCCONL CLEAR     65  61  87 CALM      30.02S
WINFIELD       MOCLDY    65  61  87 CALM      30.03S
$$

KSZ007>012-019>026-033>040-048>060-102>105-301000-
NORTHEAST KANSAS

CITY           SKY/WX    TMP DP  RH WIND       PRES   REMARKS
CONCORDIA      CLOUDY    64  59  83 S9        29.99F
EMPORIA        MOCLDY    61  60  97 CALM      30.02F
LAWRENCE       CLEAR     60  59  96 SE3       30.01F
MANHATTAN      CLOUDY    60  58  92 SW5       30.00F
MARYSVILLE     CLEAR     61  59  94 SE5       30.00F
OLATHE IND     CLEAR     61  60  97 S5        30.04R
OLATHE EXE     CLEAR     63  60  90 S3        30.04R
SALINA         PTCLDY    61  59  93 SE9       30.01S
TOPEKA BILLARD FOG       63  63 100 NW3       30.01F VSB 1/4
TOPEKA FORBES  CLEAR     62  60  93 S6        30.02S
$$




USA.gov is the U.S. government's official web portal to all federal, state and local government web resources and services.